Warning: Javascript must be enabled to use all the features on this page!


Page Loading - Please Wait...

Click to hideNews Bulletins

Peak Streamflow for the Nation

USGS 10154200 PROVO RIVER NEAR WOODLAND, UT

Summit County, Utah
Hydrologic Unit Code 16020203
Latitude  40°33'28", Longitude 111°10'05" NAD27
Drainage area 162  square miles
Gage datum 6,958.30 feet above NAVD88
Output formats
Table
Graph
Tab-separated file
peakfq (watstore) format
Reselect output format
Water
Year
Date Gage
Height
(feet)
Stream-
flow
(cfs)
1964 1964-05-24 5.04 2,2706
1965 1965-06-07 4.88 2,0406
1966 1966-05-09 4.38 1,7506
1967 1967-06-05 5.02 2,2406
1968 1968-06-05 4.68 2,0106
1969 1969-05-19 3.95 1,3406
1970 1970-05-27 4.83 2,0806
1971 1971-05-27 4.45 1,7206
1972 1972-05-31 4.65 1,8806
1973 1973-05-20 4.87 2,0706
1974 1974-05-09 4.71 1,8606
1975 1975-06-15 5.23 2,7406
1976 1976-05-29 4.10 1,4906
1977 1977-06-04 2.47 4916
1978 1978-06-09 4.73 1,9906
1979 1979-05-28 5.32 2,9506
1980 1980-06-11 4.44 1,6806
1981 1981-05-02 3.86 1,2706
1982 1982-05-27 5.00 2,0606
1983 1983-05-30 5.22 2,6106
1984 1984-05-23 5.18 2,5206
1985 1985-05-04 3.83 1,3406
1986 1986-06-07 7.40 6,0406
1987 1987-05-19 4.65 1,2806
1988 1988-05-16 5.57 1,6306
1989 1989-05-09 5.12 1,4006
1990 1990-06-11 5.87 2,0606
1991 1991-05-26 5.78 1,9806
1992 1992-04-30 3.97 6936
1993 1993-05-22 6.43 2,7806
1994 1994-05-13 5.06 1,4706
1995 1995-06-14 6.43 2,7506
1996 1996-05-16 6.38 2,6006
1997 1997-05-18 6.56 2,7806
1998 1998-06-01 5.82 2,0806
1999 1999-05-29 6.30 2,5206
2000 2000-05-26 5.86 2,1106
2001 2001-05-16 5.90 2,3106
2002 2002-05-20 4.99 1,4806
2003 2003-05-26 5.89 2,2906
2004 2004-05-06 4.78 1,3206
2005 2005-05-23 6.24 2,0706
2006 2006-05-27 6.08 2,1506
2007 2007-05-13 5.32 1,5706
2008 2008-05-20 6.68 2,7906
2009 2009-05-18 6.12 2,1906
2010 2010-06-06 6.89 3,2306
2011 2011-06-24 6.85 2,9806
2012 2012-05-11 4.83 1,0506
2013 2013-05-17 5.17 1,2706
2014 2014-05-27 6.48 2,3606
2015 2015-06-01 5.06 1,2006
2016 2016-06-06 6.02 1,9406
2017 2017-06-03 6.65 2,5306
2018 2018-05-10 5.37 1,4106
2019 2019-06-07 6.54 2,4006,9
2020 2020-05-19 5.99 1,7906
2021 2021-05-19 4.50 7126
?
  Peak Streamflow Qualification Codes.